Date String (YYYY-MM-DD hh:mm:ss) UTC,Instrument flags,Ambient pressure (hPa),Sample flow (lpm),Bypass flow (lpm),Sample temperature (°C),Ambient temperature (°C),ASC tube jacket temperature (°C),LED temperature (°C),Box temperature (°C),Sample RH (%),Span deviation,Mass concentration (μg/m³),Mass concentration (μg/m³),Mass concentration (μg/m³)
DateTimeUTC,F1_M11,P_M11,Q1_M11,Q2_M11,T1_M11,T2_M11,T3_M11,T4_M11,T5_M11,U1_M11,ZSPAN_M11,X0_M11,X2_M11,X1_M11
2022-12-18 16:00:00,,0820.3,4.97,0.00,22.3,20.7,00.0,31.1,24.0,06.1,0000.0,0008.27,0003.60,0002.97
2022-12-18 16:01:00,,0820.3,5.02,0.00,22.3,21.1,00.0,31.1,24.0,05.9,0000.0,0007.83,0003.52,0002.89
2022-12-18 16:02:00,,0820.4,4.98,0.00,22.4,22.1,00.0,31.1,24.3,05.9,0000.0,0007.94,0003.44,0002.77
2022-12-18 16:03:00,,0820.5,5.03,0.00,22.5,22.7,00.0,31.1,24.5,05.7,0000.0,0008.13,0003.37,0002.71
2022-12-18 16:04:00,,0820.4,4.96,0.00,22.5,22.3,00.0,31.2,24.4,05.9,0000.0,0007.95,0003.33,0002.64
2022-12-18 16:05:00,,0820.4,5.04,0.00,22.5,21.9,00.0,31.2,24.4,05.9,0000.0,0007.84,0003.30,0002.61
2022-12-18 16:06:00,,0820.5,4.96,0.00,22.5,21.6,00.0,31.2,24.3,05.9,0000.0,0007.74,0003.24,0002.55
2022-12-18 16:07:00,,0820.6,5.03,0.00,22.5,21.4,00.0,31.2,24.2,05.9,0000.0,0007.51,0003.20,0002.50
2022-12-18 16:08:00,,0820.6,4.95,0.00,22.4,21.2,00.0,31.2,24.2,05.9,0000.0,0007.29,0003.17,0002.47
2022-12-18 16:09:00,,0820.5,5.03,0.00,22.4,21.1,00.0,31.2,24.2,05.8,0000.0,0006.37,0003.14,0002.41
2022-12-18 16:10:00,,0820.4,5.02,0.00,22.4,21.0,00.0,31.2,24.1,05.8,0000.0,0006.31,0003.13,0002.38
2022-12-18 16:11:00,,0820.4,4.96,0.00,22.4,20.9,00.0,31.2,24.1,05.8,0000.0,0007.49,0003.15,0002.37
2022-12-18 16:12:00,,0820.5,5.03,0.00,22.4,20.9,00.0,31.2,24.1,05.6,0000.0,0007.53,0003.17,0002.36
2022-12-18 16:13:00,,0820.6,5.00,0.00,22.3,20.8,00.0,31.2,24.1,05.7,0000.0,0007.29,0003.16,0002.35
2022-12-18 16:14:00,,0820.6,4.98,0.00,22.3,20.8,00.0,31.2,24.1,05.7,0000.0,0006.98,0003.16,0002.33
2022-12-18 16:15:00,,0820.6,4.96,0.00,22.3,20.8,00.0,31.2,24.1,05.7,0000.0,0007.38,0003.16,0002.33
2022-12-18 16:16:00,,0820.6,4.95,0.00,22.3,20.7,00.0,31.2,24.0,05.7,0000.0,0007.53,0003.18,0002.34
2022-12-18 16:17:00,,0820.6,5.05,0.00,22.3,20.7,00.0,31.2,24.0,05.8,0000.0,0007.87,0003.18,0002.35
2022-12-18 16:18:00,,0820.5,5.00,0.00,22.3,20.7,00.0,31.2,24.0,05.7,0000.0,0007.95,0003.21,0002.34
2022-12-18 16:19:00,,0820.5,4.98,0.00,22.3,21.5,00.0,31.1,24.1,05.8,0000.0,0007.98,0003.18,0002.33
2022-12-18 16:20:00,,0820.6,5.05,0.00,22.4,22.4,00.0,31.1,24.4,05.9,0000.0,0008.60,0003.19,0002.35
2022-12-18 16:21:00,,0820.6,4.98,0.00,22.5,22.5,00.0,31.2,24.5,05.7,0000.0,0009.55,0003.24,0002.38
2022-12-18 16:22:00,,0820.6,4.97,0.00,22.5,22.1,00.0,31.2,24.4,05.9,0000.0,0009.65,0003.25,0002.39
2022-12-18 16:23:00,,0820.6,5.03,0.00,22.5,21.8,00.0,31.2,24.3,05.9,0000.0,0009.74,0003.26,0002.41
2022-12-18 16:24:00,,0820.6,4.96,0.00,22.5,21.5,00.0,31.3,24.3,05.8,0000.0,0009.70,0003.29,0002.46
2022-12-18 16:25:00,,0820.5,5.03,0.00,22.5,21.3,00.0,31.3,24.3,05.9,0000.0,0009.80,0003.35,0002.48
2022-12-18 16:26:00,,0820.5,5.01,0.00,22.5,21.1,00.0,31.3,24.2,06.0,0000.0,0010.00,0003.42,0002.52
2022-12-18 16:27:00,,0820.4,4.97,0.00,22.4,21.0,00.0,31.3,24.2,06.1,0000.0,0009.77,0003.41,0002.54
2022-12-18 16:28:00,,0820.4,5.03,0.00,22.4,20.9,00.0,31.3,24.2,06.0,0000.0,0009.58,0003.42,0002.54
2022-12-18 16:29:00,,0820.5,4.98,0.00,22.4,20.9,00.0,31.2,24.1,05.9,0000.0,0010.02,0003.42,0002.53
2022-12-18 16:30:00,,0820.6,4.99,0.00,22.4,20.9,00.0,31.2,24.1,06.1,0000.0,0010.09,0003.43,0002.52
2022-12-18 16:31:00,,0820.6,5.03,0.00,22.4,20.9,00.0,31.2,24.1,06.3,0000.0,0009.57,0003.46,0002.51
2022-12-18 16:32:00,,0820.7,4.96,0.00,22.3,20.9,00.0,31.2,24.1,06.5,0000.0,0008.70,0003.42,0002.49
2022-12-18 16:33:00,,0820.7,5.03,0.00,22.3,20.9,00.0,31.2,24.0,06.5,0000.0,0008.56,0003.42,0002.49
2022-12-18 16:34:00,,0820.7,5.01,0.00,22.3,20.9,00.0,31.2,24.0,06.4,0000.0,0007.81,0003.40,0002.48
2022-12-18 16:35:00,,0820.7,4.97,0.00,22.3,20.9,00.0,31.2,24.0,06.6,0000.0,0007.71,0003.37,0002.45
2022-12-18 16:36:00,,0820.8,5.04,0.00,22.3,20.9,00.0,31.2,24.0,06.7,0000.0,0007.54,0003.32,0002.44
2022-12-18 16:37:00,,0820.8,4.95,0.00,22.3,20.9,00.0,31.2,24.0,06.7,0000.0,0007.57,0003.27,0002.43
2022-12-18 16:38:00,,0820.8,5.02,0.00,22.3,21.0,00.0,31.1,24.1,06.8,0000.0,0007.78,0003.28,0002.41
2022-12-18 16:39:00,,0820.8,4.97,0.00,22.4,21.9,00.0,31.1,24.3,06.6,0000.0,0007.75,0003.29,0002.40
2022-12-18 16:40:00,,0820.9,5.04,0.00,22.5,22.7,00.0,31.1,24.5,06.2,0000.0,0007.68,0003.27,0002.42
2022-12-18 16:41:00,,0820.9,4.97,0.00,22.6,22.5,00.0,31.2,24.5,06.1,0000.0,0007.72,0003.29,0002.45
2022-12-18 16:42:00,,0820.9,5.03,0.00,22.6,22.1,00.0,31.2,24.5,06.2,0000.0,0008.23,0003.29,0002.48
2022-12-18 16:43:00,,0820.8,4.97,0.00,22.6,21.8,00.0,31.3,24.4,05.9,0000.0,0009.11,0003.34,0002.52
2022-12-18 16:44:00,,0820.9,5.04,0.00,22.5,21.6,00.0,31.3,24.3,05.9,0000.0,0009.34,0003.40,0002.56
2022-12-18 16:45:00,,0820.9,4.95,0.00,22.5,21.4,00.0,31.3,24.3,05.9,0000.0,0009.71,0003.44,0002.62
2022-12-18 16:46:00,,0820.8,5.04,0.00,22.5,21.3,00.0,31.3,24.3,05.9,0000.0,0010.19,0003.51,0002.67
2022-12-18 16:47:00,,0820.7,4.95,0.00,22.5,21.3,00.0,31.3,24.3,06.0,0000.0,0010.61,0003.61,0002.72
2022-12-18 16:48:00,,0820.7,5.04,0.00,22.5,21.2,00.0,31.3,24.2,06.0,0000.0,0010.85,0003.66,0002.76
2022-12-18 16:49:00,,0820.7,5.00,0.00,22.5,21.0,00.0,31.3,24.2,06.1,0000.0,0010.80,0003.70,0002.84
2022-12-18 16:50:00,,0820.7,4.97,0.00,22.4,20.9,00.0,31.3,24.2,06.0,0000.0,0010.93,0003.74,0002.92
2022-12-18 16:51:00,,0820.9,5.03,0.00,22.4,20.9,00.0,31.3,24.1,06.0,0000.0,0010.76,0003.80,0002.98
2022-12-18 16:52:00,,0820.8,4.97,0.00,22.4,20.9,00.0,31.3,24.1,06.2,0000.0,0012.00,0003.84,0003.00
2022-12-18 16:53:00,,0820.7,4.99,0.00,22.4,20.9,00.0,31.3,24.1,06.2,0000.0,0012.59,0003.89,0003.03
2022-12-18 16:54:00,,0820.6,5.03,0.00,22.4,20.9,00.0,31.2,24.1,06.2,0000.0,0011.80,0003.93,0003.08
2022-12-18 16:55:00,,0820.6,4.95,0.00,22.4,20.9,00.0,31.2,24.1,06.1,0000.0,0012.23,0003.99,0003.11
2022-12-18 16:56:00,,0820.6,5.03,0.00,22.4,21.4,00.0,31.2,24.2,06.2,0000.0,0012.07,0004.01,0003.13
2022-12-18 16:57:00,,0820.6,4.97,0.00,22.5,22.4,00.0,31.2,24.4,06.2,0000.0,0011.76,0004.02,0003.15
2022-12-18 16:58:00,,0820.6,5.04,0.00,22.6,22.8,00.0,31.2,24.6,06.2,0000.0,0011.48,0003.99,0003.17
2022-12-18 16:59:00,,0820.6,4.97,0.00,22.6,22.5,00.0,31.3,24.6,06.1,0000.0,0011.88,0004.02,0003.20
